• In Kazakhstan
  • List of Countries
  • For 7 days
  • Water Temperature
  • Satellite Maps
  • Weather Map
  • News
  • Weather Widgets
  • user-avatar
    Login

    Hourly Weather Prutz

    Today, 21 June, Friday

    Time Temperature Precipitation Wind Pressure Humidity
    00:00 +11°C° 0.2 mm 0 mps 634 mmHg 93%
    01:00 +10°C° 0.2 mm 0 mps 634 mmHg 92%
    02:00 +10°C° 0.2 mm 0 mps 634 mmHg 92%
    03:00 +10°C° 0.2 mm 0 mps 634 mmHg 92%
    04:00 +11°C° 0.2 mm 1 mps 634 mmHg 92%
    05:00 +11°C° 0 mm 0 mps 635 mmHg 88%
    06:00 +12°C° 0 mm 0 mps 635 mmHg 84%
    07:00 +13°C° 0 mm 0 mps 635 mmHg 80%
    08:00 +15°C° 0.2 mm 1 mps 636 mmHg 73%
    09:00 +18°C° 0.2 mm 1 mps 636 mmHg 66%
    10:00 +18°C° 0.2 mm 2 mps 637 mmHg 59%
    11:00 +18°C° 0.4 mm 2 mps 637 mmHg 62%
    12:00 +18°C° 0.4 mm 2 mps 637 mmHg 65%
    13:00 +18°C° 0.4 mm 2 mps 636 mmHg 67%
    14:00 +17°C° 1 mm 2 mps 636 mmHg 72%
    15:00 +17°C° 1 mm 2 mps 636 mmHg 77%
    16:00 +16°C° 1 mm 2 mps 636 mmHg 82%
    17:00 +15°C° 1.8 mm 2 mps 635 mmHg 87%
    18:00 +14°C° 1.8 mm 2 mps 635 mmHg 92%
    19:00 +13°C° 1.8 mm 1 mps 635 mmHg 98%
    20:00 +13°C° 2.3 mm 1 mps 635 mmHg 98%
    21:00 +13°C° 2.3 mm 1 mps 635 mmHg 98%
    22:00 +12°C° 2.3 mm 1 mps 635 mmHg 98%
    23:00 +12°C° 0.4 mm 1 mps 635 mmHg 97%

    Tomorrow, 22 June, Saturday

    Time Temperature Precipitation Wind Pressure Humidity
    00:00 +12°C° 0.4 mm 1 mps 635 mmHg 97%
    01:00 +11°C° 0.4 mm 0 mps 635 mmHg 97%
    02:00 +12°C° 0.1 mm 1 mps 634 mmHg 96%
    03:00 +11°C° 0.1 mm 1 mps 634 mmHg 96%
    04:00 +11°C° 0.1 mm 1 mps 634 mmHg 95%
    05:00 +12°C° 0.1 mm 1 mps 634 mmHg 92%
    06:00 +13°C° 0.1 mm 1 mps 635 mmHg 89%
    07:00 +14°C° 0.1 mm 1 mps 635 mmHg 86%
    08:00 +15°C° 0.9 mm 1 mps 635 mmHg 83%
    09:00 +16°C° 0.9 mm 1 mps 635 mmHg 80%
    10:00 +18°C° 0.9 mm 1 mps 636 mmHg 77%
    11:00 +16°C° 1.5 mm 1 mps 635 mmHg 80%
    12:00 +16°C° 1.5 mm 1 mps 635 mmHg 84%
    13:00 +15°C° 1.5 mm 1 mps 635 mmHg 87%
    14:00 +14°C° 2.1 mm 1 mps 634 mmHg 89%
    15:00 +14°C° 2.1 mm 1 mps 634 mmHg 92%
    16:00 +13°C° 2.1 mm 1 mps 634 mmHg 94%
    17:00 +13°C° 1.7 mm 1 mps 634 mmHg 92%
    18:00 +13°C° 1.7 mm 1 mps 634 mmHg 91%
    19:00 +13°C° 1.7 mm 1 mps 634 mmHg 89%
    20:00 +12°C° 0 mm 1 mps 634 mmHg 91%
    21:00 +11°C° 0 mm 1 mps 633 mmHg 93%
    22:00 +9°C° 0 mm 0 mps 633 mmHg 94%
    23:00 +9°C° 0 mm 0 mps 633 mmHg 95%

    Day after tomorrow, 23 June, Sunday

    Time Temperature Precipitation Wind Pressure Humidity
    00:00 +9°C° 0 mm 0 mps 634 mmHg 95%
    01:00 +10°C° 0 mm 0 mps 634 mmHg 95%
    02:00 +10°C° 0 mm 0 mps 634 mmHg 96%
    03:00 +10°C° 0 mm 0 mps 634 mmHg 96%
    04:00 +10°C° 0 mm 0 mps 634 mmHg 97%
    05:00 +10°C° 0 mm 0 mps 634 mmHg 95%
    06:00 +11°C° 0 mm 0 mps 634 mmHg 93%
    07:00 +11°C° 0 mm 0 mps 635 mmHg 92%
    08:00 +13°C° 0 mm 1 mps 635 mmHg 86%
    09:00 +15°C° 0 mm 1 mps 636 mmHg 80%
    10:00 +16°C° 0 mm 1 mps 636 mmHg 75%
    11:00 +18°C° 0 mm 1 mps 636 mmHg 71%
    12:00 +18°C° 0 mm 2 mps 637 mmHg 66%
    13:00 +19°C° 0 mm 2 mps 637 mmHg 62%
    14:00 +19°C° 0.1 mm 2 mps 637 mmHg 64%
    15:00 +19°C° 0.1 mm 2 mps 637 mmHg 66%
    16:00 +19°C° 0.1 mm 2 mps 637 mmHg 68%
    17:00 +19°C° 0.1 mm 2 mps 637 mmHg 73%
    18:00 +18°C° 0.1 mm 2 mps 637 mmHg 77%
    19:00 +17°C° 0.1 mm 2 mps 637 mmHg 81%
    20:00 +15°C° 0 mm 1 mps 637 mmHg 86%
    21:00 +14°C° 0 mm 1 mps 637 mmHg 92%
    22:00 +11°C° 0 mm 0 mps 636 mmHg 97%
    23:00 +10°C° 0 mm 0 mps 636 mmHg 96%

    24 June, Monday

    Time Temperature Precipitation Wind Pressure Humidity
    00:00 +10°C° 0 mm 0 mps 636 mmHg 95%
    01:00 +10°C° 0 mm 0 mps 636 mmHg 95%
    02:00 +9°C° 0 mm 0 mps 636 mmHg 94%
    03:00 +10°C° 0 mm 1 mps 636 mmHg 93%
    04:00 +10°C° 0 mm 1 mps 636 mmHg 92%
    05:00 +12°C° 0 mm 0 mps 637 mmHg 84%
    06:00 +14°C° 0 mm 0 mps 638 mmHg 77%
    07:00 +16°C° 0 mm 0 mps 639 mmHg 69%
    08:00 +20°C° 0 mm 1 mps 640 mmHg 62%
    09:00 +22°C° 0 mm 1 mps 640 mmHg 55%
    10:00 +24°C° 0 mm 1 mps 641 mmHg 48%
    11:00 +25°C° 0 mm 2 mps 641 mmHg 45%
    12:00 +25°C° 0 mm 2 mps 641 mmHg 43%
    13:00 +26°C° 0 mm 2 mps 642 mmHg 41%
    14:00 +26°C° 0 mm 2 mps 642 mmHg 41%
    15:00 +26°C° 0 mm 2 mps 642 mmHg 42%
    16:00 +26°C° 0 mm 2 mps 642 mmHg 42%
    17:00 +25°C° 0.2 mm 2 mps 641 mmHg 54%
    18:00 +23°C° 0.2 mm 2 mps 641 mmHg 67%
    19:00 +21°C° 0.2 mm 2 mps 641 mmHg 79%
    20:00 +20°C° 0.1 mm 1 mps 640 mmHg 83%
    21:00 +16°C° 0.1 mm 1 mps 640 mmHg 87%
    22:00 +13°C° 0.1 mm 0 mps 639 mmHg 91%
    23:00 +14°C° 0 mm 1 mps 639 mmHg 90%

    25 June, Tuesday

    Time Temperature Precipitation Wind Pressure Humidity
    00:00 +13°C° 0 mm 1 mps 639 mmHg 89%
    01:00 +13°C° 0 mm 1 mps 639 mmHg 88%
    02:00 +13°C° 0 mm 1 mps 639 mmHg 86%
    03:00 +12°C° 0 mm 1 mps 639 mmHg 85%
    04:00 +12°C° 0 mm 1 mps 638 mmHg 83%
    05:00 +15°C° 0 mm 1 mps 640 mmHg 74%
    06:00 +18°C° 0 mm 1 mps 641 mmHg 65%
    07:00 +19°C° 0 mm 0 mps 642 mmHg 57%
    08:00 +23°C° 0 mm 1 mps 642 mmHg 47%
    09:00 +24°C° 0 mm 1 mps 643 mmHg 38%
    10:00 +26°C° 0 mm 1 mps 644 mmHg 28%
    11:00 +27°C° 0 mm 1 mps 644 mmHg 26%
    12:00 +28°C° 0 mm 1 mps 644 mmHg 25%
    13:00 +29°C° 0 mm 2 mps 644 mmHg 23%
    14:00 +28°C° 0 mm 2 mps 644 mmHg 25%
    15:00 +28°C° 0 mm 2 mps 644 mmHg 28%
    16:00 +28°C° 0 mm 2 mps 644 mmHg 30%
    17:00 +26°C° 0.3 mm 2 mps 643 mmHg 45%
    18:00 +25°C° 0.3 mm 2 mps 643 mmHg 59%
    19:00 +23°C° 0.3 mm 2 mps 642 mmHg 73%
    20:00 +21°C° 0.1 mm 1 mps 642 mmHg 78%
    21:00 +18°C° 0.1 mm 1 mps 641 mmHg 84%
    22:00 +14°C° 0.1 mm 0 mps 641 mmHg 89%
    23:00 +14°C° 0 mm 0 mps 641 mmHg 89%

    26 June, Wednesday

    Time Temperature Precipitation Wind Pressure Humidity
    00:00 +13°C° 0 mm 0 mps 640 mmHg 88%
    01:00 +14°C° 0 mm 1 mps 640 mmHg 88%
    02:00 +13°C° 0 mm 1 mps 640 mmHg 86%
    03:00 +13°C° 0 mm 1 mps 640 mmHg 84%
    04:00 +13°C° 0 mm 1 mps 639 mmHg 82%
    05:00 +15°C° 0 mm 1 mps 640 mmHg 73%
    06:00 +17°C° 0 mm 0 mps 641 mmHg 65%
    07:00 +19°C° 0 mm 0 mps 642 mmHg 57%
    08:00 +23°C° 0 mm 1 mps 642 mmHg 49%
    09:00 +25°C° 0 mm 1 mps 643 mmHg 41%
    10:00 +26°C° 0 mm 1 mps 643 mmHg 33%
    11:00 +27°C° 0 mm 2 mps 643 mmHg 32%
    12:00 +28°C° 0 mm 2 mps 643 mmHg 30%
    13:00 +29°C° 0 mm 2 mps 643 mmHg 29%
    14:00 +28°C° 0 mm 2 mps 643 mmHg 31%
    15:00 +28°C° 0 mm 3 mps 643 mmHg 33%
    16:00 +28°C° 0 mm 3 mps 643 mmHg 35%
    17:00 +27°C° 0 mm 3 mps 642 mmHg 46%
    18:00 +25°C° 0 mm 2 mps 642 mmHg 57%
    19:00 +23°C° 0 mm 2 mps 641 mmHg 68%
    20:00 +20°C° 0.1 mm 2 mps 641 mmHg 77%
    21:00 +19°C° 0.1 mm 1 mps 640 mmHg 85%
    22:00 +14°C° 0.1 mm 0 mps 640 mmHg 93%
    23:00 +14°C° 0 mm 0 mps 639 mmHg 94%
    Show more